[[{"header":{"parameterUnit":"m.s-1","parameterCategory":2,"la1":30.2991,"la2":30.254,"lo1":-89.0895,"lo2":-89.0444,"dy":0.0017,"dx":0.0017,"nx":28,"ny":28,"refTime":"2024-04-13T21:00:00:Z","depth":"0","parameterNumber":2,"parameterNumberName":"U-component_of_CURRENTS"},"data":[0,0,0,0,0,0,0,0,0,0,0,0,0,0,0,0,0,0,0,0,0,0,0,0,0,0,0,0,0,0,0,0,0,0,0,0,0,0,0,0,0,0,0,0,0,0,0,0,0,0,0,0,0,0,0,0,0,0,0.271,0.271,0,0.2752,0.2752,0.2753,0.2736,0.2735,0.2734,0.2734,0.2768,0.277,0.2771,0,0,0,0,0,0,0,0,0,0,0,0,0,0.264,0.2641,0.271,0.271,0.2711,0.2752,0.2752,0.2753,0.2736,0.2735,0.2734,0.2733,0.2768,0.2769,0.2771,0,0,0,0,0,0,0,0,0,0,0,0,0,0.2673,0.2642,0.2709,0.271,0.271,0.2752,0.2752,0.2753,0.2736,0.2735,0.2734,0.2733,0.2767,0.2769,0.2772,0.2809,0,0,0.2779,0.278,0,0,0,0,0,0,0,0,0.2671,0.2675,0.2709,0.271,0.2711,0.274,0.2741,0.2772,0.2736,0.2723,0.2734,0.2732,0.2761,0.2764,0.277,0.281,0.2812,0.2779,0.2781,0.2782,0.2782,0,0,0,0,0,0,0,0.2669,0.2673,0.2724,0.271,0.2711,0.2717,0.272,0.2747,0.2745,0.2724,0.2724,0.2734,0.276,0.2768,0.2771,0.2812,0.2779,0.2781,0.2783,0.2784,0.2905,0.2906,0,0,0,0,0,0,0.2669,0.2671,0.2722,0.2725,0.2691,0.2719,0.2722,0.2729,0.2745,0.2747,0.2734,0.2733,0.2764,0.2768,0.2772,0.2838,0.2782,0.2784,0.2785,0.2903,0.2905,0.2907,0,0,0,0,0,0,0.2667,0.2673,0.2721,0.2701,0.2708,0.2722,0.273,0.2731,0.274,0.2754,0.2755,0.2743,0.2763,0.2769,0.2805,0.2838,0.2785,0.2787,0.2901,0.2904,0.2906,0.2957,0,0,0,0,0,0,0.2665,0.2672,0.2683,0.2701,0.2709,0.2756,0.2731,0.2733,0.2749,0.2747,0.2762,0.2763,0.2763,0.2802,0.2808,0.2841,0.2789,0.2899,0.2902,0.2905,0.2953,0.2961,0.2968,0,0,0,0,0,0.2663,0.2677,0.2683,0.2689,0.2721,0.2758,0.2763,0.2767,0.275,0.2767,0.2774,0.2763,0.2827,0.2805,0.2812,0.2846,0.2897,0.2901,0.2905,0.295,0.296,0.2968,0,0,0,0,0,0,0.2648,0.2678,0.2684,0.2706,0.2737,0.2756,0.2772,0.2774,0.2792,0.2786,0.2787,0.2791,0.2838,0.2837,0.2814,0.2892,0.286,0.2866,0.2892,0.2901,0.2909,0.2899,0.2791,0,0,0,0,0,0.2654,0.2672,0.2705,0.2723,0.274,0.2757,0.2773,0.2779,0.2796,0.2802,0.2815,0.2832,0.2862,0.2875,0.2901,0.2944,0.2991,0.297,0.2978,0.2984,0.2982,0.3052,0.3065,0.292,0.292,0.292,0,0,0.265,0.2672,0.268,0.2723,0.2742,0.2782,0.2763,0.2792,0.2821,0.2806,0.2847,0.2863,0.2881,0.2929,0.295,0.293,0.307,0.2989,0.2994,0.2989,0.3057,0.3071,0.3084,0.2923,0.2922,0.2922,0,0,0.2665,0.2677,0.2705,0.2737,0.278,0.2798,0.281,0.2842,0.285,0.2896,0.2895,0.2925,0.297,0.2988,0.3002,0.3068,0.311,0.3082,0.3108,0.3176,0.3189,0.32,0.3363,0.3388,0.308,0.308,0.3081,0,0.2662,0.2705,0.272,0.2764,0.2791,0.2809,0.285,0.2873,0.2913,0.2923,0.2916,0.2986,0.2998,0.3055,0.3074,0.3084,0.316,0.3071,0.3186,0.3197,0.3208,0.3371,0.3398,0.3083,0.3083,0.3083,0.3082,0,0.271,0.2746,0.2765,0.2827,0.2857,0.2895,0.2932,0.2957,0.2968,0.2989,0.3043,0.3065,0.3102,0.3118,0.3114,0.3196,0.3246,0.3192,0.3161,0.3225,0.3395,0.3423,0.3088,0.3087,0.3086,0.3085,0,0,0.2699,0.2782,0.2791,0.2822,0.2891,0.2916,0.2967,0.3015,0.3044,0.3081,0.3131,0.317,0.3176,0.3192,0.3202,0.325,0.3415,0.3253,0.3255,0.3414,0.3655,0.3634,0.3663,0.3378,0.3381,0.3383,0.3776,0,0.2735,0.2812,0.285,0.2919,0.2957,0.2986,0.3034,0.3073,0.3106,0.3164,0.3184,0.3248,0.3209,0.3245,0.3284,0.3384,0.3475,0.3319,0.3569,0.3579,0.3547,0.3686,0.3526,0.3854,0.3802,0.3807,0.381,0,0.2779,0.282,0.2889,0.2954,0.2974,0.3016,0.3074,0.3124,0.3196,0.3229,0.3278,0.3312,0.3417,0.3356,0.3566,0.3475,0.3571,0.3637,0.3653,0.362,0.3603,0.3764,0.3905,0.3752,0.3852,0.3848,0.3845,0,0.2762,0.2848,0.2896,0.2923,0.3003,0.3024,0.3067,0.3132,0.3192,0.3286,0.3364,0.3447,0.3556,0.3638,0.3772,0.3694,0.4016,0.3926,0.4015,0.4021,0.3923,0.3912,0.3928,0.4071,0.407,0.4069,0.4068,0,0.2791,0.2826,0.2887,0.2913,0.2971,0.3015,0.3091,0.3141,0.3245,0.3346,0.3404,0.3528,0.3626,0.38,0.3865,0.4065,0.411,0.4071,0.4111,0.3947,0.3933,0.382,0.3751,0.4084,0.408,0.4077,0.4075,0,0.2784,0.2824,0.2882,0.295,0.2971,0.3012,0.3126,0.3181,0.3288,0.3433,0.3487,0.3675,0.3902,0.402,0.4233,0.4236,0.4273,0.4432,0.4283,0.4292,0.4149,0.409,0.4085,0.3972,0.4606,0.4608,0.4609,0,0.2793,0.282,0.2904,0.294,0.2975,0.3042,0.3094,0.3193,0.3265,0.3525,0.3601,0.3872,0.4028,0.4368,0.443,0.4604,0.4397,0.4543,0.4305,0.4161,0.4127,0.3943,0.3832,0.4269,0.4268,0.4267,0.4266,0,0.2811,0.2842,0.2894,0.2965,0.3016,0.3076,0.3152,0.3223,0.3364,0.3502,0.3723,0.3878,0.4202,0.4295,0.4507,0.4563,0.4288,0.4521,0.4385,0.3884,0.3674,0.3575,0.4067,0.4255,0.4256,0.4256,0.4257,0.4258,0.2834,0.2867,0.2935,0.2997,0.3049,0.3089,0.3119,0.3206,0.3325,0.3496,0.3718,0.3894,0.4095,0.4352,0.4377,0.4289,0.427,0.4145,0.4119,0.3972,0.3713,0.4223,0.4403,0.4405,0.4407,0.4408,0.441,0,0.2852,0.289,0.2957,0.3011,0.304,0.3071,0.3138,0.314,0.3228,0.3426,0.359,0.3778,0.388,0.3975,0.401,0.3893,0.3686,0.3782,0.3451,0.3383,0.3872,0.3696,0.3709,0.3709,0.3709,0.3709,0.3709,0.3709,0.2867,0.292,0.2943,0.2977,0.3006,0.2991,0.3007,0.301,0.31,0.3197,0.328,0.3419,0.3614,0.3715,0.3597,0.352,0.3223,0.3126,0.3108,0.34,0.3427,0.3454,0.3266,0.3189,0.3189,0.2446,0.244,0.2436]},{"header":{"parameterUnit":"m.s-1","parameterCategory":2,"la1":30.2991,"la2":30.254,"lo1":-89.0895,"lo2":-89.0444,"dy":0.0017,"dx":0.0017,"nx":28,"ny":28,"refTime":"2024-04-13T21:00:00:Z","depth":"0","parameterNumber":3,"parameterNumberName":"V-component_of_CURRENTS"},"data":[0,0,0,0,0,0,0,0,0,0,0,0,0,0,0,0,0,0,0,0,0,0,0,0,0,0,0,0,0,0,0,0,0,0,0,0,0,0,0,0,0,0,0,0,0,0,0,0,0,0,0,0,0,0,0,0,0,0,0.0064,0.0063,0,-0.0001,-0.0002,-0.0003,-0.0057,-0.0057,-0.0057,-0.0058,-0.0162,-0.0164,-0.0167,0,0,0,0,0,0,0,0,0,0,0,0,0,0.0107,0.0106,0.0064,0.0063,0.0063,-0.0001,-0.0002,-0.0003,-0.0057,-0.0057,-0.0057,-0.0058,-0.0161,-0.0164,-0.0167,0,0,0,0,0,0,0,0,0,0,0,0,0,0.0067,0.0106,0.0064,0.003,0.0027,-0.0001,-0.0002,-0.0004,-0.0057,-0.0057,-0.0058,-0.0058,-0.016,-0.0164,-0.0167,-0.018,0,0,-0.0179,-0.018,0,0,0,0,0,0,0,0,0.007,0.0066,0.0036,0.0033,0.0029,-0.0019,-0.0025,-0.0064,-0.0056,-0.0028,-0.0058,-0.0058,-0.0116,-0.0123,-0.0137,-0.0185,-0.0189,-0.0179,-0.0181,-0.0183,-0.0184,0,0,0,0,0,0,0,0.0073,0.0068,0.0035,0.0035,0.0031,0.0007,0.0,-0.0033,-0.0071,-0.003,-0.0034,-0.0037,-0.0118,-0.0133,-0.014,-0.0191,-0.0179,-0.0182,-0.0184,-0.0186,-0.0296,-0.0297,0,0,0,0,0,0,0.0088,0.0071,0.0038,0.0034,0.0051,0.0007,-0.0,-0.0005,-0.007,-0.0079,-0.0036,-0.0039,-0.0127,-0.0136,-0.0144,-0.0193,-0.0183,-0.0186,-0.0188,-0.0296,-0.0297,-0.0297,0,0,0,0,0,0,0.0089,0.0086,0.004,0.0053,0.0046,0.0007,0.0001,-0.0006,-0.002,-0.0073,-0.0084,-0.0041,-0.0128,-0.0139,-0.0176,-0.0197,-0.0188,-0.0191,-0.0295,-0.0296,-0.0297,-0.0273,0,0,0,0,0,0,0.0091,0.0086,0.0089,0.0054,0.0046,0.0031,0.0002,-0.0007,-0.002,-0.0025,-0.0081,-0.0092,-0.0129,-0.0171,-0.018,-0.0202,-0.0194,-0.0294,-0.0295,-0.0297,-0.0273,-0.0273,-0.0273,0,0,0,0,0,0.0092,0.0103,0.009,0.0086,0.0051,0.0032,0.0025,-0.0006,-0.002,-0.0022,-0.0065,-0.009,-0.0187,-0.0174,-0.0185,-0.0208,-0.0293,-0.0295,-0.0297,-0.0272,-0.0273,-0.0273,0,0,0,0,0,0,0.0126,0.0098,0.0083,0.0084,0.0062,0.0024,0.0023,0.0,-0.0035,-0.004,-0.0093,-0.0106,-0.0151,-0.0178,-0.0162,-0.0245,-0.0247,-0.025,-0.0225,-0.0225,-0.0226,-0.0191,-0.0197,0,0,0,0,0,0.0135,0.0134,0.0102,0.0105,0.0097,0.0061,0.005,0.0028,-0.0006,-0.0022,-0.0064,-0.0114,-0.0166,-0.0191,-0.0235,-0.0271,-0.0254,-0.0296,-0.0296,-0.0296,-0.0276,-0.0272,-0.0269,-0.0303,-0.0303,-0.0303,0,0,0.0149,0.0135,0.0134,0.0112,0.0093,0.0076,0.0052,0.0042,0.002,-0.0028,-0.0066,-0.0112,-0.0175,-0.0224,-0.0247,-0.0249,-0.0275,-0.0298,-0.0297,-0.0277,-0.0274,-0.027,-0.0267,-0.0304,-0.0304,-0.0303,0,0,0.0174,0.0164,0.0167,0.0148,0.0126,0.01,0.01,0.0062,0.0039,0.0002,-0.005,-0.0099,-0.0167,-0.0222,-0.0259,-0.0283,-0.0275,-0.0304,-0.028,-0.0277,-0.0273,-0.027,-0.0224,-0.0217,-0.0306,-0.0306,-0.0306,0,0.019,0.0183,0.0167,0.0159,0.0145,0.0113,0.0104,0.0075,0.0027,0.0014,-0.0004,-0.0103,-0.0168,-0.0229,-0.0254,-0.0283,-0.0257,-0.0274,-0.0274,-0.027,-0.0267,-0.0222,-0.0214,-0.0305,-0.0305,-0.0305,-0.0305,0,0.0208,0.0198,0.0201,0.0174,0.0161,0.0152,0.0112,0.0095,0.0066,0.0036,-0.001,-0.0086,-0.0134,-0.0185,-0.0235,-0.0261,-0.0238,-0.0271,-0.0265,-0.0262,-0.0215,-0.0207,-0.0303,-0.0304,-0.0304,-0.0304,0,0,0.025,0.0218,0.0217,0.0209,0.0167,0.0165,0.0133,0.0103,0.0115,0.0049,0.0064,-0.0073,-0.0084,-0.0125,-0.0189,-0.0212,-0.0191,-0.0231,-0.0231,-0.0169,-0.0137,-0.0131,-0.0122,-0.0215,-0.0214,-0.0213,-0.0104,0,0.0264,0.0257,0.0232,0.0224,0.0216,0.018,0.0167,0.0139,0.0123,0.0135,0.0054,0.0049,-0.0069,-0.0064,-0.0118,-0.0161,-0.0172,-0.0215,-0.0163,-0.016,-0.0143,-0.0114,-0.0127,-0.0032,-0.0097,-0.0095,-0.0094,0,0.0282,0.0275,0.0269,0.0258,0.0256,0.0254,0.026,0.0248,0.0241,0.0239,0.0213,0.0186,0.0133,0.0057,-0.0017,-0.0029,-0.0079,-0.012,-0.0117,-0.0111,-0.0141,-0.0052,-0.0016,-0.0254,-0.0083,-0.0084,-0.0084,0,0.0324,0.0303,0.0304,0.0293,0.0275,0.0285,0.0291,0.0288,0.0335,0.0347,0.0425,0.0324,0.0372,0.0246,0.0143,0.008,0.0108,0.0013,-0.0024,-0.0022,-0.0022,-0.0022,-0.0197,-0.0018,-0.0018,-0.0018,-0.0019,0,0.0344,0.0347,0.0334,0.0336,0.0387,0.0351,0.0435,0.0426,0.049,0.0614,0.0513,0.0635,0.0431,0.0419,0.0243,0.0165,0.0191,0.0008,0.0005,-0.0014,-0.0014,-0.0215,-0.0323,-0.0014,-0.0015,-0.0016,-0.0017,0,0.0395,0.0365,0.0391,0.0393,0.041,0.0463,0.0569,0.065,0.0684,0.0864,0.0901,0.0918,0.0906,0.0703,0.0569,0.0368,0.0131,0.0203,0.0216,0.021,-0.0112,-0.0215,-0.0303,-0.0386,0.016,0.0161,0.0162,0,0.042,0.0432,0.0471,0.0535,0.0551,0.0635,0.0719,0.075,0.0875,0.1073,0.1198,0.1252,0.1341,0.1132,0.0771,0.0492,0.0252,0.0287,0.0119,-0.0108,-0.0226,-0.0311,-0.0382,0.0145,0.0146,0.0146,0.0146,0,0.0503,0.052,0.0563,0.0682,0.0777,0.0895,0.1028,0.1151,0.1256,0.1431,0.1691,0.1787,0.1608,0.1348,0.0937,0.0692,0.0119,0.0286,0.0036,-0.0256,-0.0341,-0.0427,0.0077,0.015,0.0149,0.0149,0.0149,0.0149,0.0607,0.0675,0.0749,0.087,0.0987,0.1165,0.1292,0.1469,0.17,0.1975,0.2045,0.2208,0.1765,0.1207,0.0886,0.0175,0.0187,-0.0084,-0.0181,-0.0238,-0.0368,0.0165,0.0226,0.0226,0.0226,0.0226,0.0226,0,0.0749,0.0823,0.0945,0.1093,0.1249,0.1271,0.1508,0.1655,0.1952,0.2201,0.2412,0.2238,0.1721,0.1109,0.0195,-0.0244,-0.0429,-0.0501,-0.0671,-0.0716,-0.0255,-0.0315,-0.0352,-0.0352,-0.0351,-0.0351,-0.0351,-0.0351,0.0843,0.098,0.103,0.1297,0.141,0.1618,0.1757,0.1981,0.2172,0.2453,0.2512,0.2512,0.1976,0.0489,-0.0552,-0.0785,-0.1083,-0.1107,-0.125,-0.1019,-0.099,-0.0963,-0.1051,-0.1242,-0.1243,-0.1697,-0.1702,-0.1705]}],[{"header":{"parameterUnit":"m.s-1","parameterCategory":2,"la1":30.2991,"la2":30.254,"lo1":-89.0895,"lo2":-89.0444,"dy":0.0017,"dx":0.0017,"nx":28,"ny":28,"refTime":"2024-04-13T21:00:00:Z","depth":"2","parameterNumber":2,"parameterNumberName":"U-component_of_CURRENTS"},"data":[0,0,0,0,0,0,0,0,0,0,0,0,0,0,0,0,0,0,0,0,0,0,0,0,0,0,0,0,0,0,0,0,0,0,0,0,0,0,0,0,0,0,0,0,0,0,0,0,0,0,0,0,0,0,0,0,0,0,0.223,0.223,0,0.2248,0.2248,0.2249,0.2273,0.2273,0.2273,0.2273,0.2306,0.2307,0.2308,0,0,0,0,0,0,0,0,0,0,0,0,0,0.2175,0.2176,0.223,0.223,0.223,0.2248,0.2248,0.2249,0.2273,0.2273,0.2273,0.2273,0.2306,0.2307,0.2308,0,0,0,0,0,0,0,0,0,0,0,0,0,0.2201,0.2177,0.223,0.224,0.2241,0.2248,0.2249,0.2249,0.2273,0.2273,0.2273,0.2273,0.2306,0.2307,0.2308,0.2318,0,0,0.2313,0.2313,0,0,0,0,0,0,0,0,0.2199,0.2203,0.2239,0.224,0.224,0.2254,0.2241,0.2271,0.2273,0.2266,0.2273,0.2273,0.2287,0.229,0.23,0.2319,0.2321,0.2313,0.2314,0.2314,0.2315,0,0,0,0,0,0,0,0.2198,0.2202,0.2242,0.2239,0.224,0.2229,0.2234,0.2247,0.2281,0.2267,0.2267,0.2262,0.2288,0.2299,0.2301,0.2321,0.2313,0.2314,0.2315,0.2315,0.2384,0.2385,0,0,0,0,0,0,0.2189,0.2201,0.2241,0.2242,0.2214,0.223,0.2235,0.2254,0.228,0.2283,0.2262,0.2263,0.2296,0.2299,0.2302,0.2406,0.2314,0.2315,0.2316,0.2383,0.2384,0.2385,0,0,0,0,0,0,0.2188,0.2193,0.224,0.2216,0.2221,0.2231,0.2251,0.2254,0.2276,0.2275,0.2279,0.2281,0.2297,0.23,0.2322,0.2404,0.2316,0.2317,0.2382,0.2383,0.2384,0.2556,0,0,0,0,0,0,0.2187,0.2193,0.2206,0.2217,0.2222,0.2262,0.2251,0.2254,0.2269,0.2271,0.2293,0.2295,0.2297,0.232,0.2324,0.2404,0.2318,0.238,0.2382,0.2384,0.2549,0.2563,0.2575,0,0,0,0,0,0.2185,0.2192,0.2208,0.2212,0.224,0.2262,0.2266,0.2273,0.227,0.2291,0.2296,0.2295,0.2335,0.2322,0.2326,0.2409,0.2379,0.2382,0.2384,0.2543,0.256,0.2574,0,0,0,0,0,0,0.2173,0.2196,0.2212,0.2228,0.2254,0.2265,0.2274,0.2281,0.2303,0.2304,0.2305,0.2309,0.2358,0.234,0.2326,0.2426,0.2359,0.2362,0.2478,0.2494,0.2507,0.2518,0.232,0,0,0,0,0,0.2178,0.2196,0.222,0.2238,0.225,0.2268,0.2277,0.2289,0.2302,0.2312,0.2327,0.2338,0.2369,0.2394,0.24,0.2457,0.2459,0.2507,0.2521,0.2532,0.2539,0.2592,0.2612,0.2392,0.2392,0.2392,0,0,0.2178,0.2191,0.2203,0.2237,0.2256,0.2305,0.2276,0.2298,0.2356,0.2311,0.2384,0.2377,0.2385,0.2452,0.2475,0.2455,0.2602,0.2535,0.2546,0.2546,0.2597,0.2619,0.2638,0.2394,0.2394,0.2393,0,0,0.2194,0.2205,0.2236,0.2266,0.2296,0.2319,0.2332,0.236,0.2392,0.2435,0.2437,0.2476,0.2496,0.2553,0.2575,0.2656,0.2656,0.2654,0.276,0.2813,0.2833,0.285,0.2921,0.2943,0.268,0.268,0.2681,0,0.2191,0.2254,0.2248,0.2293,0.2331,0.2337,0.2401,0.2437,0.2472,0.2501,0.2468,0.2535,0.2555,0.2673,0.2715,0.2698,0.2715,0.2714,0.2836,0.2852,0.2867,0.2935,0.2957,0.2689,0.2688,0.2687,0.2686,0,0.2239,0.2305,0.2323,0.2402,0.2434,0.2486,0.2535,0.2573,0.259,0.2618,0.2691,0.2709,0.2748,0.2782,0.2783,0.2917,0.2895,0.2839,0.281,0.2901,0.2965,0.2986,0.2701,0.2698,0.2695,0.2693,0,0,0.221,0.2338,0.2351,0.2418,0.2504,0.2528,0.2629,0.2714,0.2766,0.2797,0.2875,0.2954,0.2937,0.296,0.2981,0.3051,0.3206,0.3007,0.3005,0.3103,0.3342,0.3238,0.3249,0.3172,0.3175,0.3178,0.3362,0,0.227,0.2387,0.2437,0.2565,0.264,0.2683,0.2767,0.2829,0.2873,0.2939,0.2982,0.3045,0.3018,0.3051,0.3121,0.3177,0.3258,0.3162,0.3215,0.3217,0.3135,0.3268,0.2976,0.3106,0.3381,0.3384,0.3386,0,0.2335,0.2397,0.2539,0.2667,0.2696,0.276,0.2868,0.2944,0.3038,0.3066,0.313,0.3141,0.3286,0.3211,0.3375,0.3312,0.3343,0.3373,0.3379,0.3229,0.3148,0.3047,0.3131,0.3419,0.3417,0.3414,0.3412,0,0.2344,0.2487,0.2603,0.2648,0.2771,0.2823,0.2881,0.2973,0.3044,0.3156,0.3208,0.3311,0.3391,0.3441,0.3501,0.3453,0.3646,0.3578,0.3519,0.3513,0.3246,0.3209,0.3677,0.3677,0.3676,0.3676,0.3675,0,0.2424,0.2511,0.2606,0.2659,0.2748,0.2825,0.2927,0.299,0.3101,0.3198,0.3271,0.3366,0.3449,0.3548,0.3565,0.362,0.37,0.3572,0.356,0.3297,0.3265,0.3492,0.3469,0.3683,0.3681,0.368,0.3679,0,0.2455,0.2544,0.2651,0.2745,0.2773,0.2824,0.2942,0.3006,0.3123,0.326,0.3309,0.3462,0.3596,0.3657,0.3772,0.3717,0.3763,0.3747,0.3446,0.3394,0.3586,0.3569,0.3729,0.3727,0.3725,0.3724,0.3723,0,0.2495,0.2557,0.266,0.2702,0.275,0.2831,0.2887,0.3002,0.3074,0.3311,0.3369,0.3554,0.3612,0.3745,0.3705,0.3722,0.3783,0.3456,0.3298,0.3624,0.3597,0.3581,0.3567,0.3042,0.3035,0.303,0.3025,0,0.2521,0.256,0.2623,0.2697,0.276,0.282,0.2904,0.2956,0.3114,0.3225,0.3385,0.3453,0.3581,0.3449,0.3455,0.3417,0.3423,0.3345,0.3788,0.3052,0.2984,0.2954,0.2961,0.2977,0.2982,0.2985,0.2988,0.299,0.2507,0.2542,0.2618,0.2667,0.2746,0.2775,0.2766,0.2855,0.2933,0.2997,0.3198,0.3185,0.3218,0.3058,0.2995,0.2972,0.3185,0.3029,0.3043,0.3064,0.293,0.2859,0.2807,0.2811,0.2814,0.2817,0.2819,0,0.2455,0.2511,0.2572,0.2619,0.2629,0.2708,0.2746,0.2645,0.2646,0.2781,0.2813,0.257,0.2477,0.256,0.2439,0.2436,0.2383,0.2354,0.2256,0.2307,0.2352,0.2177,0.1858,0.1855,0.1852,0.1849,0,0,0.2439,0.2456,0.2468,0.2456,0.2498,0.2438,0.2414,0.2283,0.2289,0.2193,0.2197,0.229,0.2459,0.2102,0.2073,0.1962,0.2117,0.1888,0.2662,0.2598,0.2639,0.2748,0.2538,0,0,0,0,0]},{"header":{"parameterUnit":"m.s-1","parameterCategory":2,"la1":30.2991,"la2":30.254,"lo1":-89.0895,"lo2":-89.0444,"dy":0.0017,"dx":0.0017,"nx":28,"ny":28,"refTime":"2024-04-13T21:00:00:Z","depth":"2","parameterNumber":3,"parameterNumberName":"V-component_of_CURRENTS"},"data":[0,0,0,0,0,0,0,0,0,0,0,0,0,0,0,0,0,0,0,0,0,0,0,0,0,0,0,0,0,0,0,0,0,0,0,0,0,0,0,0,0,0,0,0,0,0,0,0,0,0,0,0,0,0,0,0,0,0,-0.0109,-0.0109,0,-0.0164,-0.0165,-0.0165,-0.0205,-0.0206,-0.0206,-0.0206,-0.0303,-0.0305,-0.0308,0,0,0,0,0,0,0,0,0,0,0,0,0,-0.0082,-0.0082,-0.0109,-0.0109,-0.011,-0.0164,-0.0165,-0.0166,-0.0205,-0.0206,-0.0206,-0.0206,-0.0302,-0.0305,-0.0308,0,0,0,0,0,0,0,0,0,0,0,0,0,-0.0113,-0.0082,-0.0109,-0.0134,-0.0137,-0.0163,-0.0165,-0.0166,-0.0205,-0.0206,-0.0206,-0.0206,-0.0301,-0.0305,-0.0308,-0.0326,0,0,-0.0319,-0.0321,0,0,0,0,0,0,0,0,-0.0111,-0.0114,-0.013,-0.0133,-0.0136,-0.0176,-0.0191,-0.0221,-0.0205,-0.0182,-0.0206,-0.0206,-0.0263,-0.027,-0.0282,-0.0331,-0.0335,-0.032,-0.0322,-0.0323,-0.0325,0,0,0,0,0,0,0,-0.0109,-0.0112,-0.0133,-0.0131,-0.0134,-0.0158,-0.0163,-0.0197,-0.0223,-0.0184,-0.0186,-0.0189,-0.0265,-0.0278,-0.0284,-0.0336,-0.032,-0.0323,-0.0325,-0.0327,-0.0422,-0.0422,0,0,0,0,0,0,-0.0095,-0.011,-0.0131,-0.0134,-0.0121,-0.0158,-0.0163,-0.0165,-0.0221,-0.0229,-0.0189,-0.0191,-0.0272,-0.028,-0.0288,-0.0336,-0.0323,-0.0327,-0.0329,-0.0422,-0.0422,-0.0422,0,0,0,0,0,0,-0.0094,-0.0096,-0.0129,-0.0122,-0.0127,-0.0158,-0.0159,-0.0166,-0.0176,-0.0224,-0.0234,-0.0192,-0.0272,-0.0283,-0.0314,-0.0339,-0.0329,-0.0332,-0.0421,-0.0422,-0.0422,-0.0418,0,0,0,0,0,0,-0.0093,-0.0096,-0.0093,-0.0121,-0.0127,-0.014,-0.0159,-0.0166,-0.0177,-0.018,-0.0231,-0.024,-0.0273,-0.0308,-0.0317,-0.0344,-0.0335,-0.0421,-0.0421,-0.0422,-0.0417,-0.0418,-0.0418,0,0,0,0,0,-0.0092,-0.0086,-0.0093,-0.0095,-0.0122,-0.0139,-0.0145,-0.0169,-0.0177,-0.018,-0.0212,-0.0239,-0.0319,-0.0311,-0.0322,-0.0351,-0.042,-0.0421,-0.0422,-0.0417,-0.0418,-0.0418,0,0,0,0,0,0,-0.0073,-0.009,-0.0098,-0.0097,-0.0114,-0.0145,-0.0148,-0.0164,-0.0192,-0.0193,-0.0239,-0.0251,-0.0288,-0.0313,-0.0302,-0.0378,-0.0376,-0.0379,-0.0369,-0.037,-0.037,-0.0333,-0.0338,0,0,0,0,0,-0.0066,-0.0065,-0.0087,-0.0086,-0.0091,-0.0118,-0.0127,-0.0143,-0.0169,-0.0181,-0.0216,-0.0257,-0.03,-0.0327,-0.036,-0.04,-0.039,-0.0426,-0.0426,-0.0427,-0.0402,-0.0403,-0.04,-0.0425,-0.0425,-0.0425,0,0,-0.0057,-0.0067,-0.0066,-0.0082,-0.0096,-0.0107,-0.0124,-0.0133,-0.0149,-0.0188,-0.0218,-0.0254,-0.0307,-0.0353,-0.0373,-0.0378,-0.0417,-0.0428,-0.0428,-0.0403,-0.0403,-0.04,-0.0398,-0.0425,-0.0425,-0.0425,0,0,-0.0041,-0.0046,-0.0042,-0.0058,-0.0075,-0.0092,-0.009,-0.0118,-0.0136,-0.0162,-0.0203,-0.0245,-0.0302,-0.0354,-0.0387,-0.0407,-0.0413,-0.0426,-0.0411,-0.0412,-0.041,-0.0407,-0.04,-0.0396,-0.0436,-0.0436,-0.0436,0,-0.0031,-0.0033,-0.0044,-0.0052,-0.0062,-0.0082,-0.0086,-0.011,-0.0146,-0.0152,-0.0166,-0.0241,-0.0303,-0.036,-0.0383,-0.041,-0.0397,-0.0408,-0.0411,-0.0409,-0.0406,-0.0399,-0.0395,-0.0435,-0.0435,-0.0435,-0.0435,0,-0.0019,-0.0025,-0.0023,-0.004,-0.005,-0.0056,-0.0085,-0.0095,-0.0112,-0.0131,-0.0165,-0.0234,-0.027,-0.0322,-0.0368,-0.0397,-0.0387,-0.0404,-0.0406,-0.0403,-0.0396,-0.0393,-0.0435,-0.0435,-0.0435,-0.0435,0,0,0.0011,-0.0011,-0.0012,-0.0013,-0.0046,-0.0044,-0.0068,-0.0084,-0.0063,-0.0118,-0.0098,-0.022,-0.0226,-0.0262,-0.0326,-0.0357,-0.0365,-0.0375,-0.0375,-0.0359,-0.0346,-0.0394,-0.0395,-0.0374,-0.0373,-0.0372,-0.0351,0,0.002,0.0015,-0.0002,-0.0002,-0.0005,-0.0028,-0.0034,-0.0049,-0.0052,-0.0034,-0.0109,-0.0108,-0.0214,-0.0212,-0.0268,-0.0319,-0.0352,-0.0367,-0.0357,-0.0356,-0.0393,-0.0392,-0.0367,-0.0349,-0.0347,-0.0347,-0.0346,0,0.0029,0.0028,0.0029,0.0033,0.0034,0.0042,0.0064,0.0059,0.0063,0.0067,0.0048,0.0025,-0.0039,-0.0104,-0.0201,-0.0197,-0.0269,-0.0321,-0.0322,-0.0358,-0.0397,-0.0351,-0.0343,-0.034,-0.0341,-0.0341,-0.0342,0,0.0058,0.0049,0.0059,0.0052,0.0054,0.0074,0.0089,0.0101,0.0142,0.0165,0.0228,0.0143,0.0158,0.0043,-0.01,-0.0127,-0.0179,-0.0227,-0.034,-0.0344,-0.0315,-0.0318,-0.0281,-0.0281,-0.0281,-0.0282,-0.0282,0,0.0066,0.0078,0.0088,0.0095,0.0153,0.0135,0.0224,0.0226,0.0285,0.038,0.0308,0.0369,0.0204,0.0146,-0.0021,-0.0165,-0.012,-0.0321,-0.034,-0.0316,-0.0319,-0.0305,-0.0308,-0.0281,-0.0281,-0.0281,-0.0281,0,0.0098,0.0087,0.0123,0.0148,0.0171,0.0228,0.0331,0.0406,0.0444,0.0578,0.0605,0.0574,0.0497,0.0309,0.0149,-0.003,-0.0186,-0.0254,-0.0217,-0.0234,-0.0366,-0.0369,-0.0355,-0.0357,-0.0358,-0.0359,-0.036,0,0.0111,0.0123,0.0186,0.0243,0.0271,0.036,0.0436,0.0485,0.0579,0.0705,0.0779,0.0759,0.0721,0.045,0.0161,-0.0113,-0.0163,-0.0272,-0.0351,-0.0353,-0.0372,-0.0374,-0.0375,-0.0305,-0.0305,-0.0305,-0.0306,0,0.0153,0.0182,0.0227,0.0334,0.0428,0.0535,0.0648,0.0729,0.0821,0.0927,0.1032,0.1013,0.079,0.0507,0.013,-0.0063,-0.0236,-0.0289,-0.0266,-0.0309,-0.031,-0.0328,-0.033,-0.0308,-0.0308,-0.0308,-0.0308,-0.0307,0.0208,0.0262,0.0329,0.042,0.0546,0.0671,0.0751,0.0884,0.1015,0.1159,0.1163,0.1158,0.0866,0.0375,0.0059,-0.0246,-0.0251,-0.0379,-0.0376,-0.0373,-0.039,-0.0395,-0.0411,-0.0411,-0.0411,-0.0412,-0.0412,0,0.025,0.0306,0.0404,0.0512,0.063,0.0698,0.0863,0.0957,0.1096,0.125,0.1315,0.106,0.0735,0.0427,-0.0037,-0.0353,-0.0365,-0.0431,-0.0381,-0.0377,-0.0374,-0.039,-0.0412,-0.0413,-0.0413,-0.0414,0,0,0.0282,0.035,0.0372,0.0525,0.063,0.0791,0.0875,0.1053,0.1189,0.1297,0.1326,0.1263,0.0863,0.0526,0.0118,-0.0134,-0.0181,-0.0183,-0.0154,-0.0044,-0.0036,-0.0321,-0.0339,0,0,0,0,0]}],[{"header":{"parameterUnit":"m.s-1","parameterCategory":2,"la1":30.2991,"la2":30.254,"lo1":-89.0895,"lo2":-89.0444,"dy":0.0017,"dx":0.0017,"nx":28,"ny":28,"refTime":"2024-04-13T21:00:00:Z","depth":"4","parameterNumber":2,"parameterNumberName":"U-component_of_CURRENTS"},"data":[0,0,0,0,0,0,0,0,0,0,0,0,0,0,0,0,0,0,0,0,0,0,0,0,0,0,0,0,0,0,0,0,0,0,0,0,0,0,0,0,0,0,0,0,0,0,0,0,0,0,0,0,0,0,0,0,0,0,0.1242,0.1243,0,0.1294,0.1294,0.1294,0.1339,0.134,0.1341,0.1342,0.1381,0.1381,0.1381,0,0,0,0,0,0,0,0,0,0,0,0,0,0.1146,0.1147,0.1242,0.1243,0.1244,0.1294,0.1294,0.1294,0.1339,0.134,0.1342,0.1343,0.1381,0.1381,0.1381,0,0,0,0,0,0,0,0,0,0,0,0,0,0.1186,0.1147,0.1241,0.1277,0.1281,0.1294,0.1294,0.1294,0.1339,0.134,0.1342,0.1343,0.1381,0.1381,0.1381,0.1349,0,0,0.1381,0.1381,0,0,0,0,0,0,0,0,0.1183,0.1188,0.1271,0.1275,0.1279,0.1317,0.1274,0.1314,0.1338,0.1311,0.1342,0.1344,0.1361,0.1362,0.136,0.1351,0.1352,0.1381,0.1381,0.1381,0.1381,0,0,0,0,0,0,0,0.1181,0.1186,0.1256,0.1272,0.1277,0.1278,0.1285,0.1281,0.1321,0.1313,0.1318,0.1333,0.1362,0.136,0.1362,0.1353,0.1381,0.1381,0.1381,0.1381,0.1418,0.1419,0,0,0,0,0,0,0.1187,0.1184,0.1255,0.1258,0.1241,0.1279,0.1287,0.1298,0.1322,0.1329,0.1331,0.1335,0.1359,0.1362,0.1363,0.1399,0.1381,0.1381,0.1381,0.1417,0.1419,0.142,0,0,0,0,0,0,0.1184,0.1192,0.1253,0.1227,0.1236,0.128,0.1292,0.1299,0.1327,0.1337,0.1343,0.1358,0.1361,0.1363,0.139,0.1398,0.1381,0.1381,0.1416,0.1418,0.1419,0.1425,0,0,0,0,0,0,0.1181,0.1191,0.1209,0.1228,0.1238,0.1267,0.1291,0.1299,0.1335,0.1341,0.136,0.1364,0.1362,0.139,0.139,0.1398,0.1381,0.1415,0.1417,0.1419,0.1423,0.1426,0.1428,0,0,0,0,0,0.1177,0.119,0.1209,0.1219,0.1259,0.1268,0.1272,0.1305,0.1335,0.1338,0.1368,0.1365,0.1402,0.1391,0.1391,0.1399,0.1414,0.1416,0.1418,0.1422,0.1425,0.1428,0,0,0,0,0,0,0.1156,0.1197,0.1218,0.1245,0.1261,0.1278,0.1293,0.1318,0.1342,0.1363,0.1372,0.1377,0.1405,0.1404,0.1391,0.1418,0.1409,0.1411,0.1412,0.1415,0.1418,0.1427,0.1381,0,0,0,0,0,0.1161,0.1183,0.1214,0.1234,0.1246,0.1275,0.129,0.1314,0.1338,0.1352,0.1371,0.1394,0.1407,0.1415,0.1425,0.1432,0.1477,0.1441,0.1443,0.1445,0.1456,0.1555,0.1569,0.1427,0.1427,0.1427,0,0,0.1157,0.1185,0.1198,0.1232,0.1249,0.1245,0.1286,0.1315,0.1329,0.135,0.1381,0.1405,0.1414,0.1429,0.1441,0.1432,0.1508,0.1448,0.145,0.1459,0.1559,0.1573,0.1586,0.1428,0.1428,0.1428,0,0,0.1135,0.1185,0.1185,0.1194,0.1233,0.1251,0.1266,0.13,0.1338,0.1366,0.1393,0.1433,0.1441,0.1458,0.1463,0.1487,0.1523,0.1488,0.1501,0.1598,0.1611,0.1623,0.1689,0.1706,0.1484,0.1484,0.1484,0,0.1133,0.1136,0.1184,0.1173,0.1191,0.1251,0.1247,0.1277,0.1322,0.1367,0.1381,0.1447,0.1455,0.1485,0.1494,0.1493,0.155,0.1484,0.1603,0.1616,0.1628,0.1693,0.1712,0.1484,0.1484,0.1484,0.1484,0,0.109,0.11,0.11,0.1112,0.1134,0.1146,0.1196,0.1247,0.1312,0.1349,0.1427,0.1455,0.1506,0.1503,0.1502,0.1581,0.1594,0.16,0.1595,0.1643,0.1707,0.1728,0.1485,0.1485,0.1485,0.1485,0,0,0.1065,0.1072,0.1072,0.1076,0.1114,0.1129,0.1178,0.1245,0.131,0.1362,0.1442,0.1469,0.1528,0.154,0.1558,0.1622,0.1746,0.1647,0.1652,0.1712,0.1957,0.1787,0.1793,0.1786,0.1789,0.1792,0.1964,0,0.1022,0.0986,0.1021,0.101,0.0997,0.1089,0.1123,0.1201,0.13,0.139,0.1462,0.1547,0.1528,0.1592,0.1643,0.1749,0.1803,0.1698,0.1902,0.1907,0.1752,0.1812,0.1804,0.1979,0.1984,0.1987,0.199,0,0.0955,0.095,0.0925,0.0973,0.0986,0.1011,0.1142,0.1195,0.1336,0.1411,0.1515,0.1604,0.172,0.1702,0.1886,0.1832,0.1891,0.1944,0.1953,0.1808,0.1775,0.1925,0.2027,0.2024,0.2021,0.2019,0.2016,0,0.0883,0.089,0.0883,0.0887,0.0941,0.1006,0.1081,0.1214,0.1306,0.1481,0.1579,0.1702,0.1811,0.1926,0.2037,0.2009,0.222,0.2203,0.2087,0.2076,0.2176,0.2161,0.2313,0.2313,0.2312,0.2312,0.2311,0,0.0809,0.08,0.0861,0.085,0.0894,0.0975,0.1094,0.1177,0.1346,0.1448,0.1611,0.1713,0.1883,0.2022,0.2093,0.215,0.2281,0.2103,0.2115,0.217,0.2154,0.219,0.2173,0.2318,0.2317,0.2316,0.2315,0,0.0702,0.0733,0.073,0.0812,0.0848,0.09,0.1094,0.1191,0.1355,0.1511,0.1592,0.1783,0.1965,0.2093,0.2277,0.2213,0.2303,0.2271,0.232,0.2331,0.2082,0.2064,0.2199,0.2194,0.2191,0.2188,0.2185,0,0.063,0.0606,0.0685,0.0711,0.0763,0.0876,0.0962,0.1158,0.1265,0.1535,0.1584,0.1828,0.1939,0.2072,0.2185,0.2305,0.2256,0.2274,0.2161,0.2075,0.2075,0.2062,0.205,0.2179,0.2178,0.2177,0.2176,0,0.0497,0.0541,0.0562,0.0608,0.0703,0.0795,0.0939,0.1015,0.1253,0.1421,0.1581,0.1719,0.1867,0.1991,0.2071,0.2144,0.2266,0.2234,0.2241,0.2136,0.2052,0.2053,0.2045,0.2163,0.2165,0.2166,0.2167,0,0.0418,0.0419,0.0466,0.0512,0.0611,0.0692,0.0792,0.0947,0.1088,0.1384,0.1426,0.1673,0.1838,0.1907,0.2002,0.2047,0.2019,0.1947,0.1969,0.1984,0.1828,0.1686,0.171,0,0,0,0,0,0.0341,0.0346,0.0363,0.0433,0.0528,0.0591,0.0757,0.0875,0.1118,0.1191,0.1311,0.1462,0.1624,0.1738,0.1748,0.189,0.2005,0.1887,0.1925,0.2091,0.2106,0.1939,0,0,0,0,0,0,0.0298,0.0315,0.033,0.0359,0.0397,0.0511,0.0626,0.0776,0.083,0.1066,0.1169,0.1339,0.1518,0.1602,0.1707,0.174,0.1727,0.2028,0.2024,0.2083,0.2096,0.2108,0.1941,0,0,0,0,0]},{"header":{"parameterUnit":"m.s-1","parameterCategory":2,"la1":30.2991,"la2":30.254,"lo1":-89.0895,"lo2":-89.0444,"dy":0.0017,"dx":0.0017,"nx":28,"ny":28,"refTime":"2024-04-13T21:00:00:Z","depth":"4","parameterNumber":3,"parameterNumberName":"V-component_of_CURRENTS"},"data":[0,0,0,0,0,0,0,0,0,0,0,0,0,0,0,0,0,0,0,0,0,0,0,0,0,0,0,0,0,0,0,0,0,0,0,0,0,0,0,0,0,0,0,0,0,0,0,0,0,0,0,0,0,0,0,0,0,0,-0.0051,-0.0051,0,-0.0081,-0.0082,-0.0082,-0.011,-0.011,-0.011,-0.011,-0.0167,-0.0169,-0.017,0,0,0,0,0,0,0,0,0,0,0,0,0,-0.0043,-0.0043,-0.0051,-0.0051,-0.0051,-0.0081,-0.0082,-0.0082,-0.011,-0.011,-0.011,-0.011,-0.0167,-0.0169,-0.017,0,0,0,0,0,0,0,0,0,0,0,0,0,-0.0058,-0.0043,-0.0051,-0.0068,-0.0069,-0.0081,-0.0082,-0.0082,-0.011,-0.011,-0.011,-0.0111,-0.0166,-0.0168,-0.017,-0.0176,0,0,-0.0176,-0.0177,0,0,0,0,0,0,0,0,-0.0057,-0.0058,-0.0065,-0.0066,-0.0068,-0.0091,-0.01,-0.0115,-0.0109,-0.0096,-0.011,-0.0111,-0.0143,-0.0147,-0.0154,-0.0179,-0.0181,-0.0177,-0.0178,-0.0179,-0.0179,0,0,0,0,0,0,0,-0.0056,-0.0057,-0.0064,-0.0065,-0.0067,-0.0083,-0.0085,-0.0103,-0.0119,-0.0097,-0.0099,-0.01,-0.0145,-0.0152,-0.0155,-0.0182,-0.0176,-0.0178,-0.0179,-0.018,-0.019,-0.0189,0,0,0,0,0,0,-0.0048,-0.0056,-0.0063,-0.0065,-0.0062,-0.0082,-0.0085,-0.0084,-0.0118,-0.0123,-0.01,-0.0101,-0.0148,-0.0153,-0.0157,-0.0125,-0.0179,-0.018,-0.0182,-0.019,-0.0189,-0.0188,0,0,0,0,0,0,-0.0047,-0.0048,-0.0062,-0.006,-0.0063,-0.0082,-0.0081,-0.0085,-0.0092,-0.012,-0.0125,-0.0103,-0.0148,-0.0154,-0.0163,-0.0129,-0.0181,-0.0183,-0.0192,-0.019,-0.0189,-0.0087,0,0,0,0,0,0,-0.0047,-0.0048,-0.0047,-0.006,-0.0063,-0.0061,-0.0081,-0.0085,-0.0092,-0.0094,-0.0124,-0.013,-0.0149,-0.016,-0.0165,-0.0133,-0.0185,-0.0193,-0.0191,-0.0189,-0.0092,-0.0083,-0.0075,0,0,0,0,0,-0.0047,-0.0041,-0.0047,-0.0048,-0.0061,-0.006,-0.0063,-0.0079,-0.0091,-0.0088,-0.0106,-0.0129,-0.0152,-0.0161,-0.0167,-0.0135,-0.0194,-0.0191,-0.0189,-0.0096,-0.0084,-0.0075,0,0,0,0,0,0,-0.0039,-0.0044,-0.0051,-0.0048,-0.0051,-0.0065,-0.0065,-0.0076,-0.0089,-0.0092,-0.0121,-0.0127,-0.0121,-0.0147,-0.0156,-0.0134,-0.0175,-0.0174,-0.0102,-0.0091,-0.0083,-0.0051,-0.0186,0,0,0,0,0,-0.0036,-0.0033,-0.0039,-0.0037,-0.0037,-0.0051,-0.0055,-0.0063,-0.0074,-0.008,-0.0096,-0.0113,-0.0117,-0.0121,-0.0135,-0.0126,-0.018,-0.0109,-0.0101,-0.0093,-0.0072,-0.0145,-0.0141,-0.0181,-0.0181,-0.0181,0,0,-0.0033,-0.0035,-0.0033,-0.0035,-0.0041,-0.0014,-0.0054,-0.0054,-0.0024,-0.0084,-0.0057,-0.0088,-0.0111,-0.0094,-0.0093,-0.0111,-0.0111,-0.009,-0.0083,-0.0066,-0.0142,-0.0139,-0.0135,-0.018,-0.018,-0.018,0,0,-0.0008,-0.0024,-0.0005,0.0004,0.0005,0.0002,0.0006,-0.0001,0.0001,0.0011,-0.0013,-0.0019,-0.0039,-0.0032,-0.0035,0.001,-0.0068,-0.0002,0.0074,0.0003,0.0006,0.0007,-0.0062,-0.0067,0.0007,0.0007,0.0007,0,-0.0003,0.0031,0.0,0.0034,0.0058,0.0018,0.0065,0.0063,0.0057,0.0065,0.0032,0.0019,0.0001,0.0037,0.0061,0.0034,-0.0032,0.0039,0.0014,0.0015,0.0015,-0.0057,-0.0064,0.0012,0.0012,0.0011,0.0011,0,0.0049,0.0083,0.0097,0.0135,0.0147,0.0177,0.0181,0.0185,0.0171,0.0167,0.0175,0.0141,0.013,0.0131,0.0115,0.0126,0.007,0.0028,-0.001,0.0025,-0.0053,-0.0062,0.002,0.0018,0.0016,0.0015,0,0,0.0056,0.0124,0.0133,0.0181,0.0212,0.0229,0.0273,0.0302,0.0316,0.03,0.0312,0.0326,0.0277,0.0272,0.024,0.0204,0.0154,0.0128,0.0121,0.0064,-0.0018,-0.0016,-0.0027,0.0089,0.0088,0.0087,-0.0074,0,0.0117,0.0213,0.0228,0.0325,0.0381,0.0374,0.0416,0.0428,0.0407,0.0397,0.0366,0.0356,0.0339,0.0316,0.0283,0.017,0.0135,0.0202,-0.0046,-0.0052,-0.0052,-0.0035,0.0085,-0.0081,-0.0084,-0.0085,-0.0086,0,0.0178,0.024,0.0353,0.0438,0.0457,0.0504,0.0542,0.0569,0.0545,0.0517,0.0492,0.0434,0.0407,0.0356,0.0216,0.0246,0.0141,0.0057,0.0046,0.0012,-0.0066,-0.0125,-0.0104,-0.0103,-0.0102,-0.01,-0.0099,0,0.0222,0.0329,0.0427,0.0463,0.0543,0.0584,0.0611,0.0611,0.0615,0.0578,0.0539,0.0488,0.042,0.0305,0.0154,0.016,-0.004,-0.0069,-0.0155,-0.0158,-0.0158,-0.0159,-0.0163,-0.0163,-0.0162,-0.0162,-0.0161,0,0.03,0.0376,0.0457,0.0519,0.0599,0.0638,0.069,0.0688,0.0669,0.0657,0.0598,0.0544,0.0395,0.0264,0.0143,-0.0034,-0.0058,-0.013,-0.0193,-0.0113,-0.0106,-0.0166,-0.0165,-0.0168,-0.0167,-0.0165,-0.0164,0,0.0339,0.0405,0.0506,0.0603,0.063,0.0678,0.0726,0.0741,0.0724,0.0689,0.0672,0.055,0.0383,0.0238,0.0016,-0.0063,-0.0223,-0.0277,-0.0178,-0.0235,-0.0293,-0.0284,-0.0393,-0.0394,-0.0395,-0.0395,-0.0396,0,0.0376,0.0437,0.054,0.0578,0.0627,0.0699,0.0732,0.0756,0.0758,0.0687,0.0656,0.0505,0.0413,0.0113,-0.0042,-0.0267,-0.0283,-0.0366,-0.0299,-0.0263,-0.0313,-0.0303,-0.0293,-0.0398,-0.0398,-0.0398,-0.0398,0,0.0417,0.0443,0.051,0.0588,0.0646,0.0708,0.076,0.0761,0.0765,0.0745,0.0634,0.0495,0.0301,0.01,-0.0074,-0.023,-0.031,-0.0376,-0.0375,-0.0313,-0.0271,-0.0317,-0.0306,-0.0402,-0.0401,-0.0401,-0.0401,0,0.0412,0.0445,0.0516,0.0583,0.0652,0.0707,0.0735,0.0744,0.0749,0.0689,0.0638,0.0458,0.0348,0.0113,-0.0053,-0.0197,-0.0224,-0.0252,-0.0257,-0.0256,-0.015,-0.0072,-0.0187,0,0,0,0,0,0.0408,0.0448,0.0503,0.0585,0.065,0.0698,0.0748,0.0766,0.0768,0.07,0.0681,0.0514,0.0264,0.0142,-0.0001,-0.0075,-0.0254,-0.0248,-0.029,-0.042,-0.0416,-0.0312,0,0,0,0,0,0,0.0405,0.0458,0.0498,0.0578,0.063,0.0706,0.0744,0.0738,0.0708,0.0681,0.055,0.049,0.0245,0.0352,-0.0001,-0.0049,-0.0093,-0.0363,-0.0366,-0.0422,-0.0419,-0.0416,-0.0307,0,0,0,0,0]}]]